Tracking 18851 objects as of 25-Nov-2017
HD Live streaming from Space Station
objects crossing your sky now

APRIZESAT 6

Track APRIZESAT 6 now!
10-day predictions
APRIZESAT 6 is classified as:


NORAD ID: 37793
Int'l Code: 2011-044F
Perigee: 628.8 km
Apogee: 693.2 km
Inclination: 98.3 °
Period: 97.8 minutes
Semi major axis: 7031 km
RCS: 0.203 m2 (medium)
Launch date: August 17, 2011
Source: United States (US)
Launch site: Orenburg, Russia (OREN)
aabbcc
Your satellite tracking list
Your tracking list is empty




NASA's NSSDC Master Catalog

Two Line Element Set (TLE):
1 37793U 11044F   17328.89345385 +.00000132 +00000-0 +29346-4 0  9999
2 37793 098.3106 100.6586 0045787 285.4834 188.1175 14.72263412336767
Source of the keplerian elements: AFSPC